(139) Juewa
ephemeris date magn radius delta ra dec elong phase
Today16 Oct 202513.42.554 AU3.406 AU14h55m-23°49'26.6°10.1°
Opposition19 Jul 202612.43.018 AU2.025 AU20h11m-35°09'165.2°4.9°
(139) Juewa - 2025-10-16
astro.vanbuitenen.nl


 
-1 year
-1 month
-1 day
Now
+1 day
+1 month
+1 year

The interactive orbit chart above shows the body's path through the solar system and its position at the given date. Green and blue lines are shown perpendicular to the ecliptic plane: Green if the path is above the ecliptic plane, blue if it is below. (Left-click and drag to rotate the view; Right-click and drag to move the view; Use scroll wheel to zoom in our out.)

The orbital elements of Juewa are:

            e (Eccentricity)                : 0.1701350
            a (Semimajor axis)              : 2.7851378
            i (Inclination)                 : 10.87201
            Ω (Longitude of ascending node) : 1.67162
            ω (Argument of perihelion)      : 167.27871
            M (Mean anomaly)                : 17.56544
            Epoch                           : 2025 May 05

            L (Longitude of perihelion)     : -10.82857
            B (Latitude of perihelion)      : 2.38045
            P (Orbital period in years)     : 4.65            
        

The light curve chart below shows the estimated development of the minor planet's magnitude.


The all-sky chart below shows the path of the minor planet over the same period as the light curve. The current position is marked yellow.





The following chart shows the path of the minor planet in the next few days. The field of view is optimized for (~10x50) binoculars and finderscopes.




Ephemerides:
Date       Time       RA (2000)    DEC (2000)    delta   radius  elong  phase   PA    magn
2025-10-16 00:00 UT   14 55 18.1   -23 49 44     3.406    2.554   26.6   10.1   121   13.4 
2025-10-16 22:54 UT   14 57 05.4   -23 57 42     3.413    2.556   26.1    9.9   121   13.4 
2025-10-17 00:00 UT   14 57 10.5   -23 58 04     3.413    2.556   26.1    9.9   121   13.4 
2025-10-18 00:00 UT   14 59 03.2   -24 06 22     3.420    2.558   25.6    9.7   121   13.4 
2025-10-19 00:00 UT   15 00 56.2   -24 14 35     3.426    2.559   25.1    9.5   121   13.4 
2025-10-20 00:00 UT   15 02 49.4   -24 22 46     3.433    2.561   24.6    9.3   121   13.4 
2025-10-21 00:00 UT   15 04 42.9   -24 30 53     3.439    2.563   24.1    9.1   122   13.4 
2025-10-22 00:00 UT   15 06 36.6   -24 38 56     3.446    2.564   23.6    8.9   122   13.4 
2025-10-23 00:00 UT   15 08 30.6   -24 46 56     3.452    2.566   23.0    8.7   122   13.4 
2025-10-24 00:00 UT   15 10 24.8   -24 54 52     3.458    2.568   22.5    8.5   123   13.4 
2025-10-25 00:00 UT   15 12 19.3   -25 02 45     3.464    2.569   22.0    8.3   123   13.4 
2025-10-26 00:00 UT   15 14 14.0   -25 10 34     3.470    2.571   21.5    8.2   123   13.4 
2025-10-27 00:00 UT   15 16 08.9   -25 18 19     3.476    2.573   21.0    8.0   124   13.4 
2025-10-28 00:00 UT   15 18 04.1   -25 26 00     3.482    2.575   20.5    7.8   124   13.4 
2025-10-29 00:00 UT   15 19 59.4   -25 33 38     3.487    2.576   20.0    7.6   125   13.4 
2025-10-30 00:00 UT   15 21 55.0   -25 41 12     3.493    2.578   19.5    7.4   125   13.4 
2025-10-31 00:00 UT   15 23 50.8   -25 48 41     3.498    2.580   19.0    7.2   125   13.4 
2025-11-01 00:00 UT   15 25 46.8   -25 56 07     3.504    2.581   18.5    7.0   126   13.4 
2025-11-02 00:00 UT   15 27 43.1   -26 03 29     3.509    2.583   18.0    6.8   127   13.3 
2025-11-03 00:00 UT   15 29 39.5   -26 10 46     3.514    2.585   17.5    6.6   127   13.3 


    Terminology:
            
    delta:  distance between minor planet and earth in AU
    radius: distance between minor planet and sun in AU
    magn:   magnitude (brightness) estimate    
    ra:     right ascension in hours (24h = 360deg)
    dec:    declination in degrees
    elong:  elongation in degrees (angle sun-earth-minor planet)    
    phase:  phase angle in degrees (angle sun-minor planet-earth)        
    AU:     Astronomical Unit (mean distance between earth and sun: 149597870.7 km
    

Orbital elements provided by the MPC (Minor Planet Center).
Calculations by a modified version of AAPlus, a C# implementation of the AA+ project by PJ Naughter from the algorithms presented in the book "Astronomical Algorithms" by Jean Meeus.
NGC2000 dso catalog and star labels from VizieR as provided by the Strasbourg astronomical Data Center.
Tycho2 catalog from the ESO archive.